Home   Weather   Saint Helier   Past weeks

Flag for Jersey Past Weather in Saint Helier, Jersey — Yesterday and Last 2 Weeks

59 °F


Feels Like: 59 °F
Forecast: 56 / 60 °F
Wind: 5 mph from Southeast

Location: Jersey Airport

Current Time: Oct 25, 2016 at 2:56:46 PM

Latest Report: Oct 25, 2016 at 2:20 PM

Visibility: 4 mi

Pressure: 30.18 "Hg

Humidity: 94%

Dew Point: 57 °F

Location of Saint HelierLocation

Past Weather in Saint Helier — Graph


Saint Helier Temperature Yesterday

Maximum temperature yesterday: 57 °F (at 2:20 PM)
Minimum temperature yesterday: 54 °F (at 3:50 AM)
Average temperature yesterday: 55 °F

High & Low Weather Summary for the Past Weeks

High63 °F (Oct 16, 12:50 PM)100% (Oct 13, 7:20 AM)30.27 "Hg (Oct 13, 7:20 AM)
Low45 °F (Oct 14, 2:20 AM)59% (Oct 11, 2:50 PM)29.59 "Hg (Oct 23, 3:20 PM)
Average53 °F85%29.97 "Hg
* Reported Oct 10 1:20 PM — Oct 25 1:20 PM, Saint Helier, Weather by CustomWeather, © 2016

Note: Actual official high and low records may vary slightly from our data, if they occured in-between our weather recording intervals... More about our weather records


Saint Helier Weather History for the Previous 24 Hours

Scroll right to see more
Time TempWeatherWind HumidityBarometerVisibility
1:20 PM
Tue, Oct 25
57 °FFog.6 mph100%30.18 "Hg3 mi
12:50 PM55 °FCool.6 mph100%30.18 "Hg1 mi
12:20 PM55 °FCool.6 mph100%30.18 "Hg1 mi
11:50 AM55 °FFog.7 mph100%30.18 "Hg1 mi
11:20 AM57 °FScattered clouds.5 mph100%30.18 "Hg1 mi
10:50 AM57 °FCool.3 mph100%30.18 "Hg1 mi
10:20 AM55 °FFog.3 mph100%30.15 "Hg1 mi
9:50 AM55 °FFog.3 mph100%30.15 "Hg0 mi
9:20 AM55 °FFog.8 mph100%30.15 "Hg0 mi
8:50 AM52 °FCool.7 mph100%30.12 "Hg1 mi
8:20 AM52 °FFog.6 mph100%30.12 "Hg4 mi
7:50 AM50 °FFog.3 mph100%30.12 "HgN/A
7:20 AM52 °FFog.No wind100%30.09 "HgN/A
6:50 AM52 °FFog.1 mph100%30.09 "HgN/A
6:20 AM52 °FFog.No wind100%30.09 "HgN/A
5:20 AM54 °FFog.2 mph100%30.07 "Hg3 mi
4:50 AM55 °FFog.2 mph100%30.07 "Hg2 mi
4:20 AM52 °FFog.2 mph100%30.07 "Hg3 mi
3:50 AM54 °FFog.3 mph100%30.07 "Hg1 mi
9:20 PM
Mon, Oct 24
54 °FPassing clouds.2 mph100%29.98 "HgN/A
8:50 PM54 °FPassing clouds.2 mph100%29.95 "HgN/A
8:20 PM55 °FPassing clouds.3 mph94%29.95 "HgN/A
7:50 PM55 °FPassing clouds.5 mph94%29.92 "HgN/A
7:20 PM55 °FPassing clouds.6 mph94%29.92 "HgN/A
6:50 PM55 °FPassing clouds.7 mph94%29.92 "HgN/A
6:20 PM55 °FPassing clouds.6 mph100%29.92 "HgN/A
5:50 PM55 °FPassing clouds.6 mph100%29.89 "HgN/A
5:20 PM55 °FPassing clouds.6 mph100%29.89 "HgN/A
4:50 PM57 °FPassing clouds.7 mph94%29.89 "HgN/A
4:20 PM57 °FPassing clouds.7 mph94%29.86 "HgN/A
3:50 PM57 °FPassing clouds.6 mph94%29.86 "HgN/A
3:20 PM57 °FPassing clouds.7 mph94%29.86 "HgN/A
2:50 PM57 °FPassing clouds.7 mph94%29.86 "HgN/A
2:20 PM57 °FPassing clouds.6 mph94%29.83 "HgN/A
Weather by CustomWeather, © 2016

See weather overviewHow to use our weather pages